Location: 81360 Arifat, France
(43.7204°N, 2.3408°E)
Time: 19:03:23
(UTC+02:00)

Envisat - Pass Details

Date: 01 October 2021
Orbit: 764 x 766 km, 98.2° (Epoch: 18 October)

Event Time Altitude Azimuth Distance (km) Brightness Sun altitude
Rises 05:35:19 0° 33° (NNE) 3,238 7.1 -24.4°
Reaches altitude 10° 05:38:59 10° 60° (ENE) 2,305 6.5 -23.8°
Maximum altitude 05:41:19 13° 88° (E) 2,088 6.2 -23.4°
Drops below altitude 10° 05:43:40 10° 116° (ESE) 2,297 6.0 -23.0°
Sets 05:47:17 0° 143° (SE) 3,216 6.5 -22.4°
